Wind_Speed
9 9 8 8 7 7 6 5 5 5 5 4 4 4 8 11 13 13 12 10 9 8 5 3 4 8 23 25 18 18 18 18 15 12 7 7 7 11 11 11 8 5 6 7 1 3 8
9 9 9 9 8 8 7 6 6 5 5 5 5 4 5 9 12 13 12 11 11 9 6 4 3 7 21 26 19 21 19 18 17 19 8 8 10 11 10 9 3 7 9 9 5 1 6
10 10 9 9 9 9 8 7 6 6 6 5 6 5 5 6 10 13 13 11 12 11 9 6 4 5 15 25 24 23 20 18 20 19 8 6 6 7 4 7 2 5 10 11 8 5 3
10 10 10 10 9 10 9 9 8 7 6 6 6 6 6 6 7 13 14 13 14 14 12 9 6 5 7 26 28 23 21 19 21 20 10 7 3 4 7 3 5 11 9 15 15 13 9
9 10 9 10 10 10 10 10 9 8 7 7 6 6 6 6 7 9 13 15 15 16 15 13 10 6 6 28 27 24 22 18 23 23 14 9 5 3 2 4 9 13 14 19 16 18 13
10 9 9 9 10 10 10 10 10 9 8 8 7 7 7 6 7 8 10 13 17 17 17 16 14 9 10 17 27 28 20 17 22 24 16 12 7 5 6 7 3 8 13 20 18 13 15
10 10 9 9 9 10 10 10 10 10 9 9 8 7 7 7 7 8 10 10 12 16 20 18 9 13 6 10 21 24 21 20 24 24 18 15 12 9 4 3 4 6 12 20 19 16 18
10 10 10 9 10 9 9 9 10 10 10 9 9 8 7 7 7 7 9 13 13 12 14 19 22 18 13 11 15 22 24 22 21 21 20 19 18 9 7 2 4 5 3 4 15 18 17
11 11 11 10 10 9 9 9 9 10 10 10 9 9 7 7 8 8 10 12 10 11 13 11 17 20 16 16 15 23 27 24 19 19 23 20 20 12 7 3 3 2 6 4 9 11 15
11 12 12 11 10 10 9 9 9 9 10 10 10 9 8 7 8 7 9 10 9 9 9 3 12 13 24 18 14 19 23 25 23 22 18 20 22 16 11 7 4 5 3 10 16 4 17
11 12 13 13 11 11 10 9 9 9 9 10 10 10 9 8 8 7 8 8 7 5 3 2 8 10 25 22 5 17 19 23 21 24 21 17 14 20 14 7 4 7 12 15 12 11 12
11 12 13 13 12 11 10 9 9 8 9 9 9 10 10 9 9 7 6 5 3 3 5 1 7 10 23 23 14 16 15 22 19 20 22 21 14 17 15 9 8 8 13 11 4 12 5
11 11 12 13 13 12 10 9 9 8 8 8 8 10 11 11 11 9 8 5 3 4 3 3 5 10 23 23 16 15 17 20 18 18 20 20 19 18 12 8 15 11 8 3 1 0 6
11 11 12 13 14 13 11 9 9 8 8 7 8 9 12 12 11 11 11 8 5 3 5 5 5 6 16 19 16 15 21 21 23 14 17 10 12 17 15 10 6 11 9 4 5 3 4
12 12 12 12 13 13 11 10 9 7 7 7 7 8 11 12 12 12 14 11 2 2 7 10 7 10 13 15 11 15 25 24 23 20 10 9 10 14 9 9 12 12 16 10 4 2 1
13 12 12 12 13 14 12 10 9 7 6 6 6 8 11 12 14 14 18 17 8 5 3 10 6 9 10 11 11 16 21 24 24 24 18 8 5 8 2 10 10 13 15 8 6 3 3
13 13 12 12 13 13 13 10 9 6 5 5 6 8 11 12 14 17 22 20 16 12 12 7 2 1 4 7 10 16 13 14 22 27 21 19 13 8 2 3 9 8 11 7 5 3 6
13 13 13 12 12 12 13 10 7 5 4 4 5 8 9 13 15 17 19 16 14 12 8 11 9 6 3 6 10 16 21 23 11 26 31 22 8 12 7 8 4 4 5 7 7 6 6
14 13 12 12 11 11 12 10 7 4 3 3 7 9 9 12 9 8 6 8 11 6 3 4 5 4 8 11 11 20 24 20 15 29 32 29 16 11 6 6 12 7 8 8 8 8 9
14 13 12 12 11 10 11 9 6 2 3 4 9 7 10 10 9 7 8 10 7 6 7 4 6 9 11 9 15 13 16 13 17 20 22 17 19 16 19 19 18 18 14 11 9 7 7
14 13 12 12 11 10 9 10 6 3 3 5 11 6 10 7 5 4 6 5 11 12 11 1 4 8 12 10 11 15 14 15 20 23 28 27 25 20 20 15 14 11 11 13 15 12 13
12 13 13 11 11 10 8 8 7 2 4 5 10 9 7 7 4 4 2 6 12 10 16 7 8 11 12 15 12 15 14 19 20 21 26 35 28 23 21 15 10 4 8 10 13 17 13
12 12 13 12 11 10 9 7 7 4 4 6 8 10 10 6 6 4 7 9 12 11 13 17 9 5 15 9 12 12 13 20 20 17 22 27 25 27 16 12 7 5 5 10 11 11 12
13 12 13 13 12 10 10 8 6 6 4 5 10 11 8 5 8 3 5 7 14 11 11 21 12 13 12 18 24 23 18 17 18 25 25 25 23 17 11 10 1 6 7 5 8 7 8
13 13 13 13 14 12 11 10 8 6 5 5 7 8 9 7 8 7 7 5 15 16 12 21 17 11 12 13 16 14 18 16 14 14 15 16 21 12 8 13 4 8 5 1 3 8 8
12 12 13 13 14 14 12 12 10 8 6 5 7 7 9 9 10 9 9 8 9 20 16 15 31 6 13 8 3 9 8 8 8 13 17 15 18 18 16 8 7 8 8 7 9 15 12
14 12 12 13 13 14 13 13 12 10 9 6 6 8 10 11 12 13 9 8 11 16 20 18 21 33 8 11 12 7 6 14 12 17 20 16 15 13 8 6 6 9 5 6 6 12 9
15 13 13 13 13 14 14 13 13 12 11 9 7 8 10 12 14 16 13 10 9 15 23 20 16 21 19 17 16 8 5 9 7 14 14 18 13 11 13 10 8 8 4 7 10 12 13
15 14 12 14 14 14 14 13 14 13 13 12 10 9 10 13 13 18 19 16 12 13 14 19 24 14 16 20 16 7 6 7 10 14 16 15 13 14 13 13 7 3 3 5 9 15 14
Wind_Direction
306 304 307 310 312 313 318 323 325 323 317 310 305 260 241 237 230 224 227 234 220 217 227 250 237 200 188 192 171 191 193 201 190 174 154 88 143 157 161 180 189 219 189 199 184 104 64
303 301 295 296 298 300 302 304 308 311 310 303 293 290 255 235 230 222 226 231 221 220 228 244 250 207 195 191 186 191 197 203 185 176 161 122 133 157 142 173 205 231 204 201 209 140 62
309 298 296 289 289 290 291 291 291 296 299 300 292 283 275 245 230 226 228 229 224 223 228 239 249 229 202 182 195 193 199 200 188 187 170 143 120 146 127 140 198 187 201 204 213 218 304
314 305 295 293 285 283 283 283 284 283 287 291 290 283 271 258 239 229 230 231 225 224 226 234 244 258 206 198 199 196 199 199 193 192 175 180 148 113 112 77 201 193 230 219 213 221 256
320 311 300 294 290 280 278 278 278 278 278 280 281 280 274 260 245 237 231 233 231 228 228 232 238 255 201 199 202 198 197 199 199 203 193 204 214 166 102 164 175 194 211 219 225 226 245
328 319 310 301 295 286 277 275 274 273 272 272 274 275 272 264 252 242 235 234 233 233 231 233 238 243 206 197 207 201 195 198 203 209 210 217 223 198 119 120 100 207 220 229 235 268 250
335 327 320 310 301 294 282 274 272 270 267 267 267 268 270 261 256 248 240 241 244 242 237 235 227 228 214 204 211 204 200 198 202 209 207 223 230 223 196 112 37 1 230 239 256 277 274
344 337 328 319 309 301 292 278 269 267 263 258 259 259 262 259 253 249 238 238 246 252 250 238 232 223 206 206 205 198 194 194 196 201 206 221 235 222 214 317 341 11 144 265 249 272 286
349 346 339 328 317 306 298 286 272 265 261 255 250 250 253 252 251 249 243 245 261 274 277 236 231 220 197 208 208 204 207 209 201 197 206 218 229 231 244 269 300 284 267 290 315 293 248
350 349 346 337 325 312 301 292 280 269 262 254 246 242 243 243 245 249 246 250 266 285 299 264 224 206 192 206 216 197 205 207 209 202 197 221 231 232 241 246 253 260 283 319 324 234 212
349 349 349 343 333 320 305 298 287 273 264 254 242 235 231 234 238 238 240 247 262 271 338 327 178 191 193 202 202 192 204 196 205 197 197 208 213 223 233 222 252 256 305 315 326 241 227
342 346 348 345 339 327 313 302 294 278 266 257 241 230 222 223 230 233 230 239 245 237 258 158 180 191 189 201 204 188 189 190 185 191 202 212 201 216 228 243 234 283 296 303 277 214 227
329 338 342 345 342 332 319 307 297 285 270 256 241 224 216 216 223 224 226 223 235 228 359 14 214 206 199 204 205 194 193 190 192 194 209 218 221 211 233 232 278 297 278 309 356 17 225
317 326 334 340 341 336 325 311 300 290 272 254 235 219 211 211 216 220 219 217 239 11 37 5 215 217 192 202 199 196 200 200 196 187 203 218 215 206 229 251 295 288 261 222 203 198 265
309 315 324 332 338 338 331 317 302 294 276 260 237 216 210 205 211 216 214 216 228 114 24 25 154 180 171 186 190 197 207 208 204 196 183 192 202 203 239 267 260 251 256 250 231 238 270
301 305 314 324 334 339 336 324 307 298 278 262 242 220 214 203 205 209 218 227 224 237 340 30 118 165 194 205 217 202 205 215 208 204 201 205 224 206 326 268 247 223 243 229 220 144 241
297 299 305 316 327 336 337 331 314 301 273 252 235 218 212 205 204 206 222 232 240 250 300 344 142 232 214 251 233 226 221 213 212 208 212 225 238 184 114 212 218 173 189 206 233 210 165
294 294 299 306 319 330 336 338 323 305 276 250 226 200 203 195 203 211 227 245 265 271 280 288 272 309 209 286 279 245 239 236 234 205 211 211 246 253 287 260 211 169 227 256 233 219 211
293 290 293 299 308 322 331 341 329 303 270 249 196 186 171 184 195 199 224 250 253 260 226 217 227 244 273 274 259 247 246 250 241 194 204 212 226 242 268 276 228 216 217 233 249 233 188
285 291 287 292 301 313 323 336 335 301 241 220 188 187 185 192 188 215 236 238 236 188 176 203 224 260 263 246 233 242 259 251 236 219 211 222 222 224 239 237 225 217 233 247 228 218 200
280 287 286 287 294 303 313 326 335 302 224 212 195 194 196 207 212 232 241 229 185 189 190 200 222 267 256 254 230 254 255 242 229 227 233 229 224 243 250 230 214 236 245 242 246 244 230
285 279 284 280 286 293 298 311 321 290 218 216 202 206 217 228 255 285 247 203 182 220 195 228 284 247 255 222 232 254 247 229 230 228 220 220 224 222 192 188 195 191 228 245 253 235 228
288 279 278 277 282 283 288 293 310 304 225 223 206 211 230 250 226 268 204 187 188 214 191 220 250 187 122 160 218 241 233 217 217 212 180 189 194 182 175 183 199 189 212 239 251 250 237
285 282 274 273 276 278 276 280 287 296 265 227 220 219 223 235 222 226 215 207 193 191 204 209 258 179 142 124 122 128 142 159 166 177 187 187 187 171 179 189 177 230 235 287 219 205 189
285 282 274 274 272 272 269 270 274 275 270 241 228 228 230 236 208 225 224 211 195 190 177 194 229 219 188 154 150 133 130 134 151 166 188 189 179 166 172 194 188 203 240 291 237 235 222
286 284 278 270 270 268 265 261 266 266 263 249 237 228 217 215 210 212 227 209 179 190 199 213 215 246 236 173 236 208 172 176 169 163 159 185 202 191 185 180 187 218 244 287 313 281 245
283 281 284 271 270 270 260 255 256 260 259 255 244 231 224 215 205 196 195 196 192 191 186 192 204 212 231 251 290 225 172 189 176 186 184 186 181 194 190 206 217 221 237 306 281 308 308
279 280 281 279 272 266 257 254 251 256 259 254 248 241 235 225 212 208 203 193 210 191 193 188 185 182 198 230 233 208 201 202 196 205 217 221 217 230 222 211 243 222 251 293 299 292 297
272 276 280 284 272 257 254 252 247 250 255 256 253 246 243 237 217 216 212 194 204 202 203 204 209 205 204 205 221 221 184 199 216 219 230 216 210 205 206 212 212 208 267 291 297 294 291
Height
3139 3138 3138 3137 3136 3136 3135 3135 3134 3133 3133 3133 3132 3132 3133 3134 3135 3137 3139 3141 3142 3144 3144 3145 3145 3146 3149 3152 3156 3157 3160 3163 3167 3170 3171 3170 3169 3170 3171 3172 3173 3173 3174 3174 3174 3174 3174
3137 3137 3136 3136 3135 3135 3134 3133 3133 3132 3132 3132 3132 3131 3132 3132 3134 3136 3138 3139 3141 3142 3143 3144 3144 3145 3147 3151 3154 3156 3160 3162 3166 3169 3170 3169 3169 3170 3171 3173 3174 3174 3175 3175 3175 3176 3176
3136 3135 3134 3134 3134 3133 3133 3132 3132 3131 3131 3131 3131 3131 3131 3131 3132 3134 3136 3137 3139 3140 3142 3143 3143 3144 3145 3150 3150 3154 3158 3161 3165 3168 3170 3170 3171 3171 3172 3173 3173 3174 3175 3176 3176 3176 3176
3134 3133 3133 3132 3131 3131 3131 3131 3130 3130 3130 3130 3130 3130 3130 3130 3130 3131 3133 3135 3137 3138 3140 3141 3142 3143 3143 3146 3149 3153 3157 3161 3164 3166 3169 3170 3171 3172 3173 3174 3173 3174 3176 3176 3176 3177 3177
3132 3131 3130 3130 3129 3129 3129 3128 3128 3128 3128 3129 3129 3128 3128 3128 3129 3129 3130 3132 3134 3136 3137 3139 3141 3142 3143 3144 3148 3151 3155 3160 3163 3166 3169 3170 3171 3173 3175 3174 3173 3174 3174 3175 3175 3177 3178
3131 3130 3129 3128 3127 3126 3126 3126 3126 3126 3126 3126 3127 3127 3127 3127 3127 3127 3128 3129 3130 3132 3134 3136 3138 3143 3141 3142 3145 3149 3153 3157 3160 3164 3168 3170 3172 3174 3175 3174 3174 3175 3175 3175 3175 3177 3177
3130 3128 3127 3126 3125 3124 3124 3123 3124 3124 3124 3124 3124 3124 3125 3125 3125 3125 3126 3126 3130 3130 3130 3133 3136 3138 3139 3141 3144 3147 3151 3154 3158 3162 3165 3168 3171 3173 3174 3174 3174 3174 3175 3176 3176 3177 3176
3129 3127 3125 3124 3123 3122 3121 3121 3121 3121 3121 3122 3122 3122 3122 3123 3123 3123 3124 3124 3125 3127 3127 3128 3130 3134 3137 3139 3141 3145 3149 3153 3156 3160 3163 3167 3168 3172 3173 3173 3173 3173 3174 3174 3177 3177 3176
3128 3126 3124 3122 3121 3120 3119 3118 3118 3118 3119 3119 3120 3120 3121 3121 3121 3122 3122 3123 3124 3124 3124 3125 3125 3129 3135 3137 3139 3142 3147 3150 3154 3158 3162 3165 3168 3171 3172 3172 3172 3173 3174 3174 3175 3175 3174
3127 3125 3123 3121 3119 3118 3117 3116 3116 3116 3116 3116 3117 3118 3119 3119 3122 3121 3121 3122 3123 3124 3123 3122 3122 3126 3131 3134 3138 3140 3143 3150 3153 3157 3161 3165 3167 3169 3170 3170 3171 3171 3173 3174 3172 3171 3171
3127 3124 3122 3120 3118 3116 3115 3114 3113 3113 3113 3114 3114 3116 3117 3118 3119 3120 3122 3121 3122 3124 3124 3123 3122 3123 3127 3133 3136 3139 3143 3147 3151 3155 3160 3163 3164 3166 3168 3169 3170 3171 3172 3171 3170 3170 3171
3126 3123 3121 3119 3116 3114 3113 3112 3111 3111 3111 3111 3112 3113 3115 3116 3117 3119 3120 3121 3123 3126 3121 3121 3121 3123 3127 3131 3135 3139 3142 3146 3150 3153 3156 3159 3161 3164 3166 3167 3168 3169 3169 3169 3169 3170 3171
3124 3122 3120 3117 3115 3113 3111 3109 3108 3108 3108 3109 3110 3111 3113 3114 3116 3118 3119 3121 3124 3122 3122 3123 3122 3123 3126 3130 3134 3137 3140 3143 3147 3151 3154 3157 3160 3162 3164 3164 3166 3166 3167 3168 3169 3170 3170
3122 3120 3119 3116 3113 3111 3109 3108 3106 3106 3106 3106 3107 3109 3110 3112 3114 3117 3119 3122 3122 3120 3120 3120 3120 3122 3124 3129 3133 3135 3138 3141 3145 3149 3152 3155 3159 3161 3161 3163 3164 3167 3166 3167 3170 3172 3167
3120 3118 3117 3115 3112 3110 3107 3106 3104 3103 3103 3104 3105 3107 3109 3111 3113 3115 3118 3119 3119 3120 3121 3119 3120 3123 3126 3129 3132 3134 3136 3140 3143 3147 3151 3153 3156 3158 3159 3160 3161 3162 3164 3165 3164 3165 3166
3118 3116 3115 3113 3111 3108 3106 3103 3102 3102 3101 3102 3103 3104 3106 3109 3111 3114 3116 3117 3118 3119 3120 3120 3120 3122 3125 3128 3130 3132 3134 3137 3140 3145 3149 3151 3154 3156 3156 3157 3157 3157 3161 3162 3161 3164 3166
3115 3114 3113 3111 3109 3107 3104 3102 3100 3100 3100 3100 3101 3102 3104 3106 3109 3111 3112 3114 3117 3119 3120 3121 3120 3121 3123 3125 3127 3129 3132 3135 3138 3142 3146 3150 3153 3154 3155 3156 3155 3156 3156 3157 3158 3160 3161
3112 3111 3110 3109 3107 3106 3103 3101 3099 3098 3098 3099 3099 3101 3102 3104 3108 3108 3110 3113 3115 3117 3119 3119 3119 3121 3122 3123 3123 3126 3127 3131 3134 3138 3141 3147 3149 3150 3153 3153 3154 3153 3153 3153 3155 3158 3158
3109 3108 3108 3107 3106 3104 3102 3100 3098 3097 3097 3098 3099 3100 3102 3104 3106 3108 3110 3111 3111 3115 3116 3117 3118 3119 3120 3120 3122 3122 3124 3128 3131 3133 3137 3143 3147 3148 3150 3153 3153 3151 3152 3152 3153 3154 3154
3106 3105 3105 3104 3104 3102 3100 3099 3097 3097 3097 3098 3099 3101 3102 3104 3105 3106 3107 3108 3110 3112 3113 3114 3115 3116 3116 3116 3116 3118 3120 3124 3128 3132 3137 3141 3142 3144 3145 3145 3147 3148 3148 3149 3150 3151 3151
3103 3102 3102 3101 3101 3100 3099 3097 3096 3095 3096 3098 3098 3100 3101 3102 3104 3104 3105 3106 3107 3109 3110 3111 3113 3113 3112 3113 3114 3115 3117 3119 3123 3127 3131 3136 3139 3141 3142 3144 3144 3146 3147 3146 3148 3149 3149
3100 3099 3099 3098 3098 3098 3097 3096 3095 3095 3095 3096 3097 3099 3100 3101 3102 3103 3103 3103 3105 3107 3108 3109 3111 3110 3109 3110 3112 3112 3113 3115 3117 3121 3123 3129 3134 3138 3139 3141 3141 3143 3144 3145 3145 3145 3145
3097 3096 3096 3096 3095 3095 3095 3094 3094 3093 3094 3094 3096 3097 3099 3100 3101 3101 3101 3101 3102 3103 3105 3107 3109 3109 3108 3108 3109 3110 3110 3114 3116 3118 3120 3126 3130 3134 3137 3139 3140 3143 3143 3142 3142 3143 3145
3094 3093 3093 3093 3093 3093 3093 3092 3092 3092 3092 3093 3094 3095 3097 3098 3099 3099 3099 3098 3099 3101 3102 3103 3109 3110 3109 3108 3109 3110 3112 3114 3116 3117 3121 3124 3128 3134 3137 3138 3141 3140 3141 3140 3141 3141 3142
3090 3090 3090 3089 3090 3090 3090 3090 3090 3090 3090 3091 3092 3093 3094 3095 3096 3098 3098 3097 3097 3100 3102 3104 3113 3110 3110 3110 3111 3112 3113 3115 3116 3119 3122 3126 3127 3130 3133 3135 3137 3138 3139 3141 3141 3142 3142
3087 3086 3086 3086 3086 3086 3087 3087 3088 3088 3088 3089 3089 3090 3092 3093 3094 3095 3096 3097 3097 3098 3101 3103 3104 3108 3111 3110 3113 3112 3112 3115 3118 3120 3121 3124 3125 3128 3128 3129 3132 3134 3136 3138 3139 3138 3139
3083 3083 3082 3082 3082 3083 3083 3084 3085 3085 3086 3087 3087 3088 3089 3090 3091 3093 3095 3095 3096 3097 3101 3102 3103 3107 3108 3112 3113 3113 3110 3112 3115 3118 3118 3120 3122 3124 3125 3128 3130 3132 3134 3136 3138 3141 3137
3079 3079 3078 3078 3078 3079 3080 3081 3082 3082 3083 3084 3085 3085 3086 3087 3089 3090 3092 3094 3094 3096 3100 3102 3104 3104 3110 3117 3118 3110 3108 3110 3111 3112 3114 3116 3118 3120 3122 3125 3129 3129 3131 3134 3136 3135 3134
3075 3075 3074 3074 3074 3075 3076 3077 3078 3079 3080 3081 3082 3082 3082 3083 3086 3087 3089 3092 3093 3094 3098 3099 3101 3104 3107 3109 3108 3106 3106 3108 3108 3110 3112 3116 3116 3118 3121 3124 3126 3127 3129 3130 3132 3132 3131